FW6151 Weather Reports


Display with metric or nautical units.
time (UTC)temp
F
wind
direction
speed
MPH
gust
MPH
rain 1hr
in
rain 24hr
in
rain mn
in
humidity
%
barometer
mb
20260510200034 58 175 0.0 1.0 0.00 0.01 0.01 87 1010.4
20260510195530 58 175 0.0 0.0 0.00 0.01 0.01 87 1010.4
20260510195030 58 175 0.0 0.0 0.00 0.01 0.01 86 1010.3
20260510194532 58 175 0.0 0.0 0.00 0.01 0.01 87 1010.3
20260510194030 58 175 0.0 0.0 0.00 0.01 0.01 86 1010.3
20260510193530 58 175 0.0 0.0 0.00 0.01 0.01 87 1010.2
20260510193030 59 175 0.0 0.0 0.00 0.01 0.01 87 1010.4
20260510192529 59 175 0.0 0.0 0.00 0.01 0.01 87 1010.4
20260510192029 59 175 0.0 0.0 0.00 0.01 0.01 86 1010.5
20260510191535 59 175 0.0 1.0 0.00 0.01 0.01 86 1010.4
20260510191029 59 175 0.0 1.0 0.00 0.01 0.01 86 1010.5
20260510190529 59 175 0.0 1.0 0.00 0.01 0.01 86 1010.4
20260510190033 60 175 0.0 0.0 0.00 0.01 0.01 86 1010.4
20260510185531 60 175 0.0 0.0 0.00 0.01 0.01 86 1010.4
20260510185027 60 175 0.0 0.0 0.00 0.01 0.01 86 1010.2
20260510184532 60 175 0.0 1.0 0.00 0.01 0.01 86 1010.2
20260510184031 60 175 0.0 3.0 0.00 0.01 0.01 86 1010.3
20260510183527 60 175 0.0 3.0 0.00 0.01 0.01 86 1010.4
20260510183036 60 175 0.0 2.0 0.00 0.01 0.01 85 1010.4
20260510182527 61 175 0.0 1.0 0.00 0.01 0.01 85 1010.4
20260510182026 61 175 0.0 1.0 0.00 0.01 0.01 85 1010.3
20260510181526 61 175 0.0 1.0 0.00 0.01 0.01 84 1010.4
20260510181025 61 175 0.0 1.0 0.00 0.01 0.01 84 1010.5
20260510180526 61 175 0.0 1.0 0.00 0.01 0.01 84 1010.5
20260510180042 61 175 0.0 1.0 0.00 0.01 0.01 83 1010.5
20260510175525 61 175 0.0 1.0 0.00 0.01 0.01 83 1010.5
20260510175025 61 175 0.0 1.0 0.00 0.01 0.01 83 1010.5
20260510174525 61 175 0.0 0.0 0.00 0.01 0.01 82 1010.4
20260510174026 61 175 0.0 1.0 0.00 0.01 0.01 82 1010.4
20260510173524 61 175 0.0 1.0 0.00 0.01 0.01 82 1010.4
20260510173025 61 175 0.0 1.0 0.00 0.01 0.01 81 1010.5
20260510172524 61 175 0.0 1.0 0.00 0.01 0.01 80 1010.6
20260510172024 61 175 0.0 1.0 0.00 0.01 0.01 80 1010.6
20260510171523 61 175 0.0 2.0 0.00 0.01 0.01 80 1010.7
20260510171021 61 175 0.0 3.0 0.00 0.01 0.01 80 1010.8
20260510170521 62 175 1.0 3.0 0.00 0.01 0.01 80 1010.7
20260510170021 62 175 0.0 3.0 0.00 0.01 0.01 80 1010.7
20260510165622 62 175 1.0 3.0 0.00 0.01 0.01 80 1010.7
20260510165020 62 175 1.0 4.0 0.00 0.01 0.01 80 1010.9
20260510164542 62 175 1.0 4.0 0.00 0.01 0.01 80 1010.9
20260510164020 62 175 0.0 0.0 0.00 0.01 0.01 80 1010.9
20260510163519 62 175 0.0 1.0 0.01 0.01 0.01 80 1011.0
20260510163020 62 175 0.0 1.0 0.01 0.01 0.01 81 1011.2
20260510162519 62 175 0.0 1.0 0.01 0.01 0.01 80 1011.1
20260510162019 62 175 0.0 1.0 0.01 0.01 0.01 80 1011.2
20260510161519 62 175 0.0 1.0 0.01 0.01 0.01 79 1011.2
20260510161018 62 175 0.0 0.0 0.01 0.01 0.01 79 1011.3
20260510160519 62 175 0.0 2.0 0.01 0.01 0.01 79 1011.4
20260510160025 62 175 0.0 2.0 0.01 0.01 0.01 80 1011.5
20260510155517 62 175 0.0 2.0 0.01 0.01 0.01 79 1011.4
20260510155018 62 175 0.0 3.0 0.01 0.01 0.01 79 1011.6
20260510154518 62 175 0.0 3.0 0.01 0.01 0.01 79 1011.6
20260510154018 62 175 0.0 4.0 0.01 0.01 0.01 79 1011.8
20260510153517 63 169 0.0 3.0 0.00 0.00 0.00 78 1011.9
20260510153025 62 118 0.0 3.0 0.00 0.00 0.00 77 1011.9
20260510152519 63 130 1.0 3.0 0.00 0.00 0.00 76 1012.0
20260510152017 63 90 0.0 3.0 0.00 0.00 0.00 76 1011.9
20260510151517 63 100 0.0 8.0 0.00 0.00 0.00 75 1011.9
20260510151016 63 75 1.0 4.0 0.00 0.00 0.00 76 1011.8
20260510150516 63 163 1.0 7.0 0.00 0.00 0.00 75 1011.7
20260510150016 63 84 1.0 7.0 0.00 0.00 0.00 74 1011.7
20260510145517 63 257 1.0 8.0 0.00 0.00 0.00 73 1011.6
20260510145016 63 110 3.0 8.0 0.00 0.00 0.00 72 1011.5
20260510144521 64 174 1.0 8.0 0.00 0.00 0.00 72 1011.7
20260510144016 64 135 1.0 7.0 0.00 0.00 0.00 71 1011.6
20260510143516 64 340 2.0 6.0 0.00 0.00 0.00 71 1011.6
20260510143016 64 175 1.0 7.0 0.00 0.00 0.00 70 1011.6
20260510142515 65 102 2.0 7.0 0.00 0.00 0.00 69 1011.6
20260510142018 65 355 2.0 8.0 0.00 0.00 0.00 68 1011.6
20260510141516 66 46 2.0 8.0 0.00 0.00 0.00 67 1011.6
20260510141015 66 155 0.0 8.0 0.00 0.00 0.00 66 1011.6
20260510140516 66 279 2.0 6.0 0.00 0.00 0.00 65 1011.5
20260510140014 67 80 2.0 6.0 0.00 0.00 0.00 64 1011.5
20260510135514 68 170 2.0 7.0 0.00 0.00 0.00 63 1011.5
20260510135014 68 24 2.0 6.0 0.00 0.00 0.00 62 1011.3
20260510134514 69 355 1.0 8.0 0.00 0.00 0.00 61 1011.3
20260510134014 70 346 2.0 6.0 0.00 0.00 0.00 60 1011.2
20260510133514 70 174 3.0 6.0 0.00 0.00 0.00 60 1011.1
20260510133016 71 184 0.0 5.0 0.00 0.00 0.00 60 1011.0
20260510132514 71 258 2.0 7.0 0.00 0.00 0.00 60 1011.1
20260510132014 70 255 2.0 7.0 0.00 0.00 0.00 60 1011.0
20260510131514 70 181 2.0 5.0 0.00 0.00 0.00 60 1011.0
20260510131013 70 292 2.0 6.0 0.00 0.00 0.00 60 1011.0
20260510130513 70 110 1.0 6.0 0.00 0.00 0.00 61 1011.0
20260510130016 71 58 1.0 4.0 0.00 0.00 0.00 61 1011.0
20260510125511 70 40 0.0 4.0 0.00 0.00 0.00 62 1011.0
20260510125010 70 171 2.0 4.0 0.00 0.00 0.00 61 1011.0
20260510124514 69 152 2.0 4.0 0.00 0.00 0.00 62 1011.1
20260510124011 70 192 2.0 5.0 0.00 0.00 0.00 63 1011.1
20260510123510 69 272 1.0 5.0 0.00 0.00 0.00 63 1011.1
20260510123011 69 184 1.0 8.0 0.00 0.00 0.00 63 1011.2
20260510122509 69 255 2.0 8.0 0.00 0.00 0.00 63 1011.3
20260510122007 69 172 0.0 4.0 0.00 0.00 0.00 63 1011.2
20260510121508 69 170 1.0 4.0 0.00 0.00 0.00 64 1011.2
20260510121006 68 170 0.0 4.0 0.00 0.00 0.00 65 1011.3
20260510120503 68 130 0.0 3.0 0.00 0.00 0.00 65 1011.4
20260510120004 68 87 0.0 5.0 0.00 0.00 0.00 65 1011.3
20260510115506 68 325 2.0 5.0 0.00 0.00 0.00 66 1011.3
20260510115002 68 234 0.0 4.0 0.00 0.00 0.00 66 1011.4
20260510114502 68 272 0.0 3.0 0.00 0.00 0.00 65 1011.5
20260510114001 68 121 0.0 6.0 0.00 0.00 0.00 65 1011.5
20260510113502 68 340 1.0 6.0 0.00 0.00 0.00 65 1011.7
20260510113110 68 193 0.0 6.0 0.00 0.00 0.00 65 1011.7
20260510112600 68 338 1.0 6.0 0.00 0.00 0.00 65 1011.7
20260510112101 68 94 0.0 8.0 0.00 0.00 0.00 64 1011.8
20260510111630 68 52 1.0 8.0 0.00 0.00 0.00 64 1011.8
20260510111100 68 179 0.0 3.0 0.00 0.00 0.00 64 1011.8
20260510110600 68 179 0.0 3.0 0.00 0.00 0.00 64 1011.8
20260510110059 68 146 1.0 3.0 0.00 0.00 0.00 66 1011.8
20260510105600 68 312 0.0 3.0 0.00 0.00 0.00 67 1011.8
20260510105059 68 311 1.0 3.0 0.00 0.00 0.00 66 1011.8
20260510104609 68 360 0.0 3.0 0.00 0.00 0.00 67 1011.9
20260510104059 68 339 1.0 3.0 0.00 0.00 0.00 67 1011.8
20260510103556 67 196 0.0 4.0 0.00 0.00 0.00 68 1011.9
20260510103056 67 249 2.0 4.0 0.00 0.00 0.00 67 1011.9
20260510102555 67 96 0.0 3.0 0.00 0.00 0.00 68 1012.0
20260510102054 67 238 0.0 2.0 0.00 0.00 0.00 69 1012.0
20260510101554 67 243 1.0 2.0 0.00 0.00 0.00 68 1012.1
20260510101052 67 250 0.0 3.0 0.00 0.00 0.00 68 1012.2
20260510100555 67 258 0.0 4.0 0.00 0.00 0.00 68 1012.2
20260510100051 67 298 0.0 4.0 0.00 0.00 0.00 68 1012.4
20260510095551 66 343 0.0 3.0 0.00 0.00 0.00 68 1012.4
20260510095053 66 348 0.0 5.0 0.00 0.00 0.00 68 1012.4
20260510094550 67 333 1.0 5.0 0.00 0.00 0.00 67 1012.5
20260510094053 67 344 1.0 5.0 0.00 0.00 0.00 67 1012.5
20260510093549 67 179 1.0 5.0 0.00 0.00 0.00 66 1012.6
20260510093049 67 179 1.0 3.0 0.00 0.00 0.00 66 1012.6
20260510092549 67 179 0.0 3.0 0.00 0.00 0.00 66 1012.6
20260510092052 67 179 1.0 3.0 0.00 0.00 0.00 68 1012.7
20260510091555 67 179 0.0 7.0 0.00 0.00 0.00 68 1012.7
20260510091046 66 143 1.0 7.0 0.00 0.00 0.00 69 1012.6
20260510090546 66 138 0.0 2.0 0.00 0.00 0.00 69 1012.7
20260510090059 66 32 0.0 2.0 0.00 0.00 0.00 69 1012.7
20260510085544 66 33 0.0 0.0 0.00 0.00 0.00 70 1012.7
20260510085043 66 113 0.0 0.0 0.00 0.00 0.00 69 1012.6
20260510084553 65 115 0.0 0.0 0.00 0.00 0.00 70 1012.7
20260510084042 65 13 0.0 3.0 0.00 0.00 0.00 71 1012.6
20260510083542 65 335 0.0 3.0 0.00 0.00 0.00 71 1012.6
20260510083040 64 192 0.0 0.0 0.00 0.00 0.00 72 1012.6
20260510082539 64 192 0.0 0.0 0.00 0.00 0.00 71 1012.6
20260510082037 64 192 0.0 1.0 0.00 0.00 0.00 72 1012.6
20260510081541 64 192 0.0 1.0 0.00 0.00 0.00 73 1012.6
20260510081035 63 192 0.0 4.0 0.00 0.00 0.00 72 1012.7
20260510080533 63 192 0.0 4.0 0.00 0.00 0.00 72 1012.9
20260510080035 63 192 0.0 4.0 0.00 0.00 0.00 72 1013.0
20260510075532 63 192 1.0 3.0 0.00 0.00 0.00 72 1013.0
20260510075030 62 192 0.0 2.0 0.00 0.00 0.00 73 1013.0
20260510074531 62 192 0.0 3.0 0.00 0.00 0.00 74 1013.1
20260510074028 62 192 1.0 3.0 0.00 0.00 0.00 75 1012.9
20260510073528 61 191 1.0 4.0 0.00 0.00 0.00 76 1013.0
20260510073035 60 191 1.0 4.0 0.00 0.00 0.00 75 1012.9
20260510072525 60 191 0.0 3.0 0.00 0.00 0.00 76 1012.9
20260510072023 59 196 0.0 0.0 0.00 0.00 0.00 75 1012.9
20260510071533 59 196 0.0 0.0 0.00 0.00 0.00 76 1012.8
20260510071023 59 196 0.0 0.0 0.00 0.00 0.00 77 1012.7
20260510070521 59 196 0.0 0.0 0.00 0.00 0.00 77 1012.8
20260510070025 58 196 0.0 0.0 0.00 0.00 0.00 78 1012.7
20260510065521 58 196 0.0 0.0 0.00 0.00 0.00 79 1012.7
20260510065020 58 196 0.0 0.0 0.00 0.00 0.00 80 1012.6
20260510064545 57 259 0.0 0.0 0.00 0.00 0.00 80 1012.6
20260510064019 57 259 0.0 0.0 0.00 0.00 0.00 81 1012.6
20260510063518 56 259 0.0 0.0 0.00 0.00 0.00 81 1012.6
20260510063022 56 259 0.0 0.0 0.00 0.00 0.00 82 1012.6
20260510062518 56 259 0.0 0.0 0.00 0.00 0.00 83 1012.7
20260510062016 55 259 0.0 0.0 0.00 0.00 0.00 83 1012.7
20260510061531 55 259 0.0 0.0 0.00 0.00 0.00 83 1012.8
20260510061016 55 259 0.0 0.0 0.00 0.00 0.00 84 1012.7
20260510060515 55 259 0.0 0.0 0.00 0.00 0.00 84 1012.8
20260510060027 54 259 0.0 0.0 0.00 0.00 0.00 84 1012.8
20260510055513 54 259 0.0 0.0 0.00 0.00 0.00 85 1012.8
20260510055015 54 248 0.0 2.0 0.00 0.00 0.00 85 1012.9
20260510054512 53 248 0.0 2.0 0.00 0.00 0.00 85 1012.9
20260510054012 53 248 0.0 2.0 0.00 0.00 0.00 85 1012.9
20260510053516 53 311 0.0 0.0 0.00 0.00 0.00 85 1013.0
20260510053011 53 311 0.0 1.0 0.00 0.00 0.00 85 1012.9
20260510052512 53 311 0.0 2.0 0.00 0.00 0.00 85 1013.0
20260510052010 53 311 0.0 2.0 0.00 0.00 0.00 85 1012.9
20260510051509 53 320 0.0 1.0 0.00 0.00 0.00 85 1013.0
20260510051007 53 320 0.0 1.0 0.00 0.00 0.00 85 1013.1
20260510050505 52 320 0.0 1.0 0.00 0.00 0.00 85 1013.1
20260510050007 52 320 0.0 1.0 0.00 0.00 0.00 84 1013.0
20260510045506 52 320 0.0 2.0 0.00 0.00 0.00 84 1013.0
20260510045005 53 320 0.0 1.0 0.00 0.00 0.00 84 1013.1
20260510044505 53 320 0.0 1.0 0.00 0.00 0.00 84 1013.1
20260510044004 53 323 0.0 1.0 0.00 0.00 0.00 84 1013.1
20260510043504 53 323 0.0 1.0 0.00 0.00 0.00 84 1013.1
20260510043002 53 323 0.0 3.0 0.00 0.00 0.00 84 1013.1
20260510042601 53 322 1.0 3.0 0.00 0.00 0.00 84 1013.1
20260510042104 53 319 0.0 2.0 0.00 0.00 0.00 84 1013.1
20260510041610 53 319 0.0 4.0 0.00 0.00 0.00 84 1013.0
20260510041058 53 319 1.0 4.0 0.00 0.00 0.00 84 1013.1
20260510040601 53 319 0.0 1.0 0.00 0.00 0.00 84 1013.1
20260510040057 53 319 0.0 1.0 0.00 0.00 0.00 84 1013.2
20260510035556 53 319 0.0 2.0 0.00 0.00 0.00 84 1013.2
20260510035056 53 321 0.0 3.0 0.00 0.00 0.00 84 1013.2
20260510034603 53 321 1.0 4.0 0.00 0.00 0.00 84 1013.3
20260510034056 53 323 1.0 4.0 0.00 0.00 0.00 84 1013.3
20260510033558 53 326 1.0 4.0 0.00 0.00 0.00 84 1013.2
20260510033058 53 330 1.0 4.0 0.00 0.00 0.00 84 1013.2
20260510032556 53 333 1.0 3.0 0.00 0.00 0.00 84 1013.3
20260510032054 53 307 0.0 3.0 0.00 0.00 0.00 84 1013.4
20260510031603 53 309 0.0 2.0 0.00 0.00 0.00 84 1013.4
20260510031054 53 232 0.0 2.0 0.00 0.00 0.00 84 1013.4
20260510030554 53 287 0.0 2.0 0.00 0.00 0.00 84 1013.5
20260510030058 53 227 0.0 2.0 0.00 0.00 0.00 84 1013.5
20260510025551 53 266 0.0 0.0 0.00 0.00 0.00 84 1013.5
20260510025053 53 269 0.0 0.0 0.00 0.00 0.00 84 1013.6
20260510024552 53 268 0.0 0.0 0.00 0.00 0.00 84 1013.6
20260510024049 53 271 0.0 1.0 0.00 0.00 0.00 84 1013.7
20260510023553 54 271 0.0 1.0 0.00 0.00 0.00 84 1013.7
20260510023049 54 286 0.0 1.0 0.00 0.00 0.00 84 1013.7
20260510022552 54 286 0.0 1.0 0.00 0.00 0.00 84 1013.7
20260510022051 54 298 0.0 1.0 0.00 0.00 0.00 84 1013.7
20260510021548 54 298 0.0 1.0 0.00 0.00 0.00 84 1013.7
20260510021047 54 298 0.0 1.0 0.00 0.00 0.00 83 1013.7
20260510020547 54 298 0.0 1.0 0.00 0.00 0.00 84 1013.6
20260510020047 54 298 0.0 1.0 0.00 0.00 0.00 84 1013.7
20260510015547 54 301 0.0 1.0 0.00 0.00 0.00 84 1013.6
20260510015046 54 302 0.0 3.0 0.00 0.00 0.00 84 1013.7
20260510014545 54 302 0.0 3.0 0.00 0.00 0.00 83 1013.7
20260510014045 54 300 0.0 0.0 0.00 0.00 0.00 84 1013.8
20260510013545 54 303 0.0 0.0 0.00 0.00 0.00 84 1013.8
20260510013051 54 309 0.0 2.0 0.00 0.00 0.00 84 1013.9
20260510012544 54 309 0.0 2.0 0.00 0.00 0.00 83 1014.0
20260510012044 54 309 1.0 2.0 0.00 0.00 0.00 83 1014.0
20260510011545 54 308 0.0 2.0 0.00 0.00 0.00 83 1014.0
20260510011043 54 312 0.0 0.0 0.00 0.00 0.00 83 1014.1
20260510010542 54 312 0.0 0.0 0.00 0.00 0.00 83 1014.1
20260510010042 55 312 0.0 0.0 0.00 0.00 0.00 82 1014.1
20260510005541 55 312 0.0 0.0 0.00 0.00 0.00 82 1014.1
20260510005041 55 312 0.0 0.0 0.00 0.00 0.00 81 1014.2
20260510004540 55 312 0.0 0.0 0.00 0.00 0.00 82 1014.1
20260510004039 55 312 0.0 0.0 0.00 0.00 0.00 81 1014.1
20260510003547 55 312 0.0 0.0 0.00 0.00 0.00 81 1014.1
20260510003048 55 312 0.0 0.0 0.00 0.00 0.00 81 1014.2
20260510002536 56 312 0.0 0.0 0.00 0.00 0.00 81 1014.2
20260510002036 56 312 0.0 0.0 0.00 0.00 0.00 80 1014.3
20260510001535 56 312 0.0 0.0 0.00 0.00 0.00 80 1014.3
20260510001034 56 312 0.0 0.0 0.00 0.00 0.00 79 1014.3
20260510000535 56 312 0.0 0.0 0.00 0.00 0.00 79 1014.3
20260510000033 57 312 0.0 0.0 0.00 0.00 0.00 79 1014.4
20260509235532 57 312 0.0 0.0 0.00 0.00 0.00 78 1014.4
20260509235031 57 312 0.0 0.0 0.00 0.00 0.00 78 1014.5
20260509234544 57 312 0.0 0.0 0.00 0.00 0.00 78 1014.3
20260509234033 58 312 0.0 0.0 0.00 0.00 0.00 78 1014.5
20260509233528 58 312 0.0 0.0 0.00 0.00 0.00 77 1014.5
20260509233039 58 312 0.0 0.0 0.00 0.00 0.00 77 1014.6
20260509232527 58 312 0.0 0.0 0.00 0.00 0.00 76 1014.6
20260509232028 58 312 0.0 0.0 0.00 0.00 0.00 76 1014.6
20260509231529 58 312 0.0 0.0 0.00 0.00 0.00 75 1014.6
20260509231025 58 312 0.0 0.0 0.00 0.00 0.00 75 1014.6
20260509230525 59 312 0.0 0.0 0.00 0.00 0.00 75 1014.5
20260509230025 59 312 0.0 0.0 0.00 0.00 0.00 75 1014.5
20260509225525 59 312 0.0 0.0 0.00 0.00 0.00 75 1014.5
20260509225023 59 312 0.0 0.0 0.00 0.00 0.00 75 1014.6
20260509224525 59 315 0.0 0.0 0.00 0.00 0.00 75 1014.6
20260509224023 59 315 0.0 0.0 0.00 0.00 0.00 75 1014.6
20260509223522 59 315 0.0 0.0 0.00 0.00 0.00 75 1014.7
20260509223023 59 315 0.0 0.0 0.00 0.00 0.00 75 1014.8
20260509222521 59 315 0.0 0.0 0.00 0.00 0.00 75 1014.7
20260509222019 59 315 0.0 0.0 0.00 0.00 0.00 75 1014.9
20260509221518 59 315 0.0 0.0 0.00 0.00 0.00 74 1014.9
20260509221019 59 315 0.0 0.0 0.00 0.00 0.00 74 1014.9
20260509220520 60 315 0.0 0.0 0.00 0.00 0.00 74 1015.0
20260509220020 60 315 0.0 0.0 0.00 0.00 0.00 73 1015.0
20260509215514 60 315 0.0 0.0 0.00 0.00 0.00 73 1014.9
20260509215018 60 315 0.0 0.0 0.00 0.00 0.00 73 1014.9
20260509214514 60 315 0.0 0.0 0.00 0.00 0.00 73 1014.9
20260509214014 60 315 0.0 0.0 0.00 0.00 0.00 72 1014.9
20260509213522 61 315 0.0 0.0 0.00 0.00 0.00 72 1015.0
20260509213014 61 315 0.0 0.0 0.00 0.00 0.00 72 1014.9
20260509212513 61 315 0.0 0.0 0.00 0.00 0.00 71 1014.9
20260509212014 61 315 0.0 0.0 0.00 0.00 0.00 71 1014.8
20260509211513 61 315 0.0 0.0 0.00 0.00 0.00 71 1014.9
20260509211013 62 315 0.0 0.0 0.00 0.00 0.00 70 1015.0
20260509210513 62 315 0.0 0.0 0.00 0.00 0.00 69 1014.9
20260509210013 62 315 0.0 0.0 0.00 0.00 0.00 68 1014.8
20260509205513 62 315 0.0 0.0 0.00 0.00 0.00 68 1014.9
20260509205012 63 315 0.0 0.0 0.00 0.00 0.00 67 1014.8
20260509204512 63 315 0.0 1.0 0.00 0.00 0.00 66 1014.8
20260509204017 63 315 0.0 3.0 0.00 0.00 0.00 66 1014.7
20260509203511 64 315 0.0 2.0 0.00 0.00 0.00 65 1014.7
20260509203012 64 315 0.0 0.0 0.00 0.00 0.00 64 1014.7
20260509202512 64 315 0.0 0.0 0.00 0.00 0.00 63 1014.8
20260509202013 64 315 0.0 0.0 0.00 0.00 0.00 63 1014.7
20260509201513 65 315 0.0 0.0 0.00 0.00 0.00 63 1014.8
20260509201011 65 315 0.0 0.0 0.00 0.00 0.00 62 1014.7
20260509200517 65 315 0.0 0.0 0.00 0.00 0.00 62 1014.6